Location: Clanezzo
(45.7500°N, 9.6000°E)
Time: 22:44:06
(UTC+00:00)

AO-92 - Pass Details

Date: 03 July 2022
Orbit: 469 x 481 km, 97.4° (Epoch: 17 August)

Event Time Altitude Azimuth Distance (km) Brightness Sun altitude
Exits shadow 20:23:12 11° 109° (ESE) 1,602 ? -9.8°
Maximum altitude 20:25:33 19° 66° (ENE) 1,224 ? -10.1°
Drops below altitude 10° 20:28:05 10° 21° (NNE) 1,670 ? -10.4°
Sets 20:30:36 0° 3° (N) 2,559 ? -10.7°
